Regional Weather Roundup
Issued by NWS Upton, NY

Current Version | Previous Version | Text Only | Print | Product List | Glossary Off
Versions: 1 2 3 4 5 6 7 8 9 10 11 12 13 14 15 16 17 18 19 20 21 22 23 24 25 26 27 28 29 30 31 32 33 34 35 36 37 38 39 40 41 42 43 44 45 46 47 48 49 50
000 ASUS41 KOKX 260907 RWROKX REGIONAL WEATHER ROUNDUP NATIONAL WEATHER SERVICE NEW YORK NY 500 AM EDT THU MAR 26 2015 NOTE: "FAIR" INDICATES FEW OR NO CLOUDS BELOW 12,000 FEET WITH NO SIGNIFICANT WEATHER AND/OR OBSTRUCTIONS TO VISIBILITY. NYZ071-072-176-178-NJZ106-104-261000- NEW YORK CITY METRO AREA CITY SKY/WX TMP DP RH WIND PRES REMARKS CENTRAL PARK CLOUDY 45 40 82 SW7 30.03F LAGUARDIA APRT CLOUDY 39 37 92 CALM 30.01F FOG KENNEDY INTL CLOUDY 43 39 86 SW3 30.03F NEWARK/LIBERTY CLOUDY 41 39 93 CALM 30.01F FOG BRNX BOT. GARD N/A 39 39 100 NE1 30.01F TETERBORO CLOUDY 41 39 93 CALM 30.01S FOG $$ NYZ177-179-078>081-261000- LONG ISLAND NEW YORK CITY SKY/WX TMP DP RH WIND PRES REMARKS FARMINGDALE CLOUDY 44 43 96 S3 30.02F FOG ISLIP CLOUDY 44 41 89 S6 30.00F FOG SHIRLEY CLOUDY 44 43 96 S6 30.02F FOG WESTHAMPTON FOG 44 43 96 S5 30.03F VSB 1/2 MONTAUK POINT N/A 45 43 93 VRB5 30.03F $$ NYZ052-065-067-261000- HUDSON VALLEY CITY SKY/WX TMP DP RH WIND PRES REMARKS WHITE PLAINS FOG 37 36 96 CALM 29.99F VSB 1/4 NEWBURGH FOG 34 34 100 CALM 30.00F VSB 1/4 MONTGOMERY FOG 35 34 96 SW5 29.99F VSB 1/4 WCI 31 POUGHKEEPSIE PTCLDY 36 34 92 CALM 30.00S FOG ALBANY CLOUDY 37 34 89 SE7 29.98F FOG WCI 32 $$ NJZ001-105-106-008-010-013-015-019>022-104-261000- NEW JERSEY CITY SKY/WX TMP DP RH WIND PRES REMARKS NEWARK/LIBERTY CLOUDY 41 39 93 CALM 30.01F FOG TETERBORO CLOUDY 41 39 93 CALM 30.01S FOG CALDWELL CLOUDY 39 37 92 CALM 30.01F FOG MORRISTOWN CLOUDY 41 37 87 CALM 30.01F FOG SOMERVILLE FOG 39 37 92 CALM 30.00F VSB 3/4 SUSSEX LGT RAIN 33 31 92 CALM 30.00F VSB 3/4 ANDOVER N/A 33 32 96 CALM 30.01S TRENTON FOG 39 37 92 CALM 30.01F VSB 1/4 MILLVILLE CLOUDY 46 45 96 S3 30.04S FOG ATLANTIC CITY FOG 49 48 97 SW7 30.04F VSB 1/2 WRIGHTSTOWN CLOUDY 40 40 100 S2 30.00F FOG TOMS RIVER CLOUDY 43 43 100 CALM 30.04F VSB 1/4 BELMAR CLOUDY 43 37 81 S5 30.02F VSB 1 $$ PAZ047>061-062-071-261000- EASTERN PENNSYLVANIA CITY SKY/WX TMP DP RH WIND PRES REMARKS PHILADELPHIA PTCLDY 41 39 93 S5 30.04F FOG ALLENTOWN PTCLDY 34 33 96 CALM 30.02F FOG SCRANTON CLEAR 37 33 85 CALM 29.98F FOG $$ CTZ002-004>006-009-010-012-RIZ004-006-007-MAZ004-011-015-261000- SOUTHERN NEW ENGLAND IN CT CITY SKY/WX TMP DP RH WIND PRES REMARKS BRADLEY INTL CLOUDY 38 36 92 S8 29.98F FOG WCI 32 HARTFORD FOG 36 36 100 CALM 30.00F VSB 1/4 DANBURY FOG 35 33 92 CALM 30.00F VSB 3/4 WTRBRY/OXFORD CLOUDY 37 30 75 CALM 30.00F VSB 1/2 BRIDGEPORT FOG 38 38 100 CALM 30.02F VSB 1/2 MERIDEN FOG 36 35 96 CALM 30.00F VSB 1/4 NEW HAVEN FOG 38 38 100 CALM 30.01F VSB 1/4 CHESTER FOG 43 43 100 SW3 30.01F VSB 1/2 GROTON FOG 42 40 92 CALM 30.02F VSB 1/4 WILLIMANTIC FOG 36 34 92 CALM 30.01F VSB 1/4 IN RI CITY SKY/WX TMP DP RH WIND PRES REMARKS PROVIDENCE CLOUDY 43 42 97 CALM 30.02F FOG BLOCK ISLAND CLOUDY 43 39 87 SW12 30.02F VSB 1/2 WESTERLY FOG 42 42 100 S6 30.02F VSB 1/2 IN MA CITY SKY/WX TMP DP RH WIND PRES REMARKS BOSTON CLOUDY 43 41 93 SW13 29.99F WORCESTER CLOUDY 40 39 97 SW15 29.95F FOG WCI 32 WESTFIELD NOT AVBL PROVINCETOWN CLOUDY 43 43 100 S15G22 30.01 NANTUCKET LGT RAIN 43 40 89 S17 30.05F $$ ANZ330-335-338-340-345-350-353-355-261000- COASTAL MARINE OBSERVATIONS STATION/POSITION TIME SKY/WX TEMP WIND PRES VSBY WAVE AIR SEA DIR/SP/G HT/PER (UTC) (F) (DEG/KT/KT) (MB) (MI) (FT/S) NY HARB ENTRANCE 0850 39 38 190/ 4/ 4 1016.5 2/ 5 4S FIRE IS 0803 37 N/A 3/ 5 20S FIRE ISLAND 0750 38 1017.7 3/ 6 23SW MTP 0850 N/A 4/ 6 HUDSON CANYON NOT AVBL EXECUTION ROCKS NOT AVBL WESTERN LI SOUND NOT AVBL CENTRAL LI SOUND NOT AVBL EASTERN LI SOUND NOT AVBL ROBBINS REEF 0800 41 280/ 3/ 3 1015.9 $$ >>>>>>>>>>>>>>>>>>>>>>>>>>>> KEY <<<<<<<<<<<<<<<<<<<<<<<<<<< > < > SKY/WX - SKY CONDITION/PRESENT WEATHER < > TMP - TEMPERATURE IN FAHRENHEIT < > DP - DEWPOINT IN FAHRENHEIT < > RH - RELATIVE HUMIDITY IN PERCENT < > WIND - DIRECTION AND SPEED IN MPH < > PRES - MEAN SEA LEVEL PRESSURE IN INCHES OF HG < > WCI - WIND CHILL INDEX < > VSB - VISIBILITY IN MILES < > HX - HEAT INDEX < > TC - TEMPERATURE IN CELSIUS < > VRB - VARIABLE WIND DIRECTION < > < >>>>>>>>>>>>>>>>>>>>>>>>>>>> KEY <<<<<<<<<<<<<<<<<<<<<<<<<<<

USA.gov is the U.S. government's official web portal to all federal, state and local government web resources and services.